KK4OHF Weather Reports


time (UTC)temp
F
wind
direction
speed
knots
gust
knots
rain 1hr
in
rain 24hr
in
rain mn
in
humidity
%
barometer
mb
20260510115006 61 279 0.0 2.6 0.00 0.00 0.00 93 1015.1
20260510114505 61 301 0.0 0.9 0.00 0.00 0.00 93 1015.1
20260510114005 61 301 0.0 0.9 0.00 0.00 0.00 93 1015.1
20260510113504 61 301 0.0 4.3 0.00 0.00 0.00 93 1015.1
20260510113005 61 291 1.7 4.3 0.00 0.00 0.00 93 1015.1
20260510112005 61 303 0.0 1.7 0.00 0.00 0.00 93 1015.1
20260510111506 61 303 0.0 0.9 0.00 0.00 0.00 93 1015.1
20260510111005 61 303 0.0 2.6 0.00 0.00 0.00 93 1014.8
20260510110005 61 288 0.0 4.3 0.00 0.00 0.00 93 1013.5
20260510105505 61 287 1.7 4.3 0.00 0.00 0.00 93 1013.5
20260510105005 61 297 0.9 2.6 0.00 0.00 0.00 93 1013.5
20260510104505 61 298 0.0 2.6 0.00 0.00 0.00 93 1013.5
20260510103505 61 292 0.0 2.6 0.00 0.00 0.00 93 1013.5
20260510102505 61 288 0.0 2.6 0.00 0.00 0.00 93 1013.5
20260510102005 61 296 0.9 2.6 0.00 0.00 0.00 93 1013.5
20260510101504 61 283 0.9 2.6 0.00 0.00 0.00 93 1013.5
20260510101005 61 294 0.9 2.6 0.00 0.00 0.00 93 1013.5
20260510100506 61 293 0.0 0.0 0.00 0.00 0.00 93 1013.5
20260510095505 61 274 0.0 0.0 0.00 0.00 0.00 93 1013.5
20260510095005 61 290 0.0 0.0 0.00 0.00 0.00 93 1013.5
20260510094505 61 289 0.0 0.0 0.00 0.00 0.00 93 1013.5
20260510093505 61 293 0.0 0.0 0.00 0.00 0.00 93 1013.5
20260510093006 61 293 0.0 0.0 0.00 0.00 0.00 93 1013.5
20260510092505 61 292 0.0 0.0 0.00 0.00 0.00 93 1013.5
20260510091505 60 291 0.0 0.0 0.00 0.00 0.00 93 1013.5
20260510091006 60 276 0.0 0.0 0.00 0.00 0.00 93 1013.5
20260510090505 60 235 0.0 0.0 0.00 0.00 0.00 93 1013.5
20260510090005 60 295 0.0 0.0 0.00 0.00 0.00 93 1013.5
20260510085504 60 262 0.0 0.0 0.00 0.00 0.00 93 1013.5
20260510084505 60 271 0.0 0.0 0.00 0.00 0.00 93 1013.5
20260510084007 59 289 0.0 0.0 0.00 0.00 0.00 93 1013.5
20260510083506 59 256 0.0 0.0 0.00 0.00 0.00 93 1013.5
20260510083006 59 255 0.0 0.0 0.00 0.00 0.00 93 1013.4
20260510082505 59 255 0.0 0.0 0.00 0.00 0.00 93 1013.4
20260510082004 60 255 0.0 0.0 0.00 0.00 0.00 93 1013.4
20260510081505 60 255 0.0 0.0 0.00 0.00 0.00 93 1013.4
20260510081006 60 255 0.0 0.0 0.00 0.00 0.00 93 1012.8
20260510080505 60 255 0.0 0.0 0.00 0.00 0.00 93 1012.8
20260510075505 60 255 0.0 0.0 0.00 0.00 0.00 93 1012.8
20260510075006 60 255 0.0 0.0 0.00 0.00 0.00 93 1012.8
20260510074504 60 255 0.0 0.0 0.00 0.00 0.00 93 1012.8
20260510074006 60 255 0.0 0.0 0.00 0.00 0.00 93 1012.8
20260510073505 60 255 0.0 0.0 0.00 0.00 0.00 93 1012.8
20260510072505 60 255 0.0 0.0 0.00 0.00 0.00 93 1012.8
20260510072005 60 255 0.0 0.0 0.00 0.00 0.00 93 1012.8
20260510071506 60 271 0.0 0.0 0.00 0.00 0.00 93 1012.8
20260510071005 60 271 0.0 0.0 0.00 0.00 0.00 93 1012.8
20260510070505 60 271 0.0 0.0 0.00 0.00 0.00 93 1012.8
20260510070005 61 264 0.0 0.0 0.00 0.00 0.00 93 1012.8
20260510065505 61 250 0.0 0.0 0.00 0.00 0.00 93 1012.8
20260510065005 61 248 0.0 0.0 0.00 0.00 0.00 93 1012.8
20260510064505 61 239 0.0 0.0 0.00 0.00 0.00 93 1012.8
20260510064005 61 239 0.0 0.0 0.00 0.00 0.00 93 1012.8
20260510063505 61 239 0.0 0.0 0.00 0.00 0.00 93 1012.8
20260510063006 61 239 0.0 0.0 0.00 0.00 0.00 93 1012.8
20260510062505 61 239 0.0 0.0 0.00 0.00 0.00 93 1012.8
20260510062005 61 239 0.0 0.0 0.00 0.00 0.00 93 1012.8
20260510061505 61 239 0.0 0.0 0.00 0.00 0.00 93 1012.8
20260510061005 61 239 0.0 0.0 0.00 0.00 0.00 93 1012.8
20260510060505 61 239 0.0 0.0 0.00 0.00 0.00 93 1012.8
20260510060006 61 239 0.0 0.0 0.00 0.00 0.00 93 1012.8
20260510054505 61 239 0.0 0.0 0.00 0.00 0.00 93 1012.8
20260510054005 61 239 0.0 0.0 0.00 0.00 0.00 93 1012.8
20260510053505 61 239 0.0 0.0 0.00 0.00 0.00 93 1012.8
20260510053005 61 239 0.0 0.0 0.00 0.00 0.00 93 1012.8
20260510052505 61 239 0.0 0.0 0.00 0.00 0.00 93 1012.8
20260510052005 61 239 0.0 0.0 0.00 0.00 0.00 93 1012.8
20260510051505 61 239 0.0 0.0 0.00 0.00 0.00 92 1012.8
20260510051005 61 239 0.0 0.0 0.00 0.00 0.00 92 1012.8
20260510050506 62 239 0.0 0.0 0.00 0.00 0.00 92 1012.8
20260510050005 62 239 0.0 0.0 0.00 0.00 0.00 92 1012.8
20260510045005 62 239 0.0 0.0 0.00 0.00 0.00 92 1012.8
20260510044505 62 239 0.0 0.0 0.00 0.00 0.00 92 1012.8
20260510044005 62 239 0.0 0.0 0.00 0.00 0.00 92 1012.8
20260510043505 62 239 0.0 0.0 0.00 0.00 0.00 92 1012.8
20260510043006 63 239 0.0 0.0 0.00 0.00 0.00 92 1012.8
20260510042005 63 239 0.0 0.0 0.00 0.00 0.00 92 1012.8
20260510041505 63 239 0.0 0.0 0.00 0.00 0.00 92 1012.8
20260510041006 63 239 0.0 0.0 0.00 0.00 0.00 92 1012.8
20260510040005 63 239 0.0 0.0 0.00 0.00 0.00 92 1012.8
20260510034505 63 239 0.0 0.0 0.00 0.00 0.00 92 1012.8
20260510034005 63 239 0.0 0.0 0.00 0.00 0.00 92 1012.8
20260510033505 63 239 0.0 0.0 0.00 0.00 0.00 92 1012.8
20260510033005 63 239 0.0 0.0 0.00 0.00 0.00 92 1012.8
20260510032506 63 239 0.0 0.0 0.00 0.00 0.00 91 1012.8
20260510032005 63 239 0.0 0.0 0.00 0.00 0.00 91 1012.8
20260510031505 63 239 0.0 0.0 0.00 0.00 0.00 91 1012.8
20260510031006 63 239 0.0 0.0 0.00 0.00 0.00 91 1012.8
20260510030505 64 239 0.0 0.0 0.00 0.00 0.00 91 1012.8
20260510030005 64 239 0.0 0.0 0.00 0.00 0.00 91 1012.8
20260510025505 64 239 0.0 0.0 0.00 0.00 0.00 91 1012.8
20260510025005 64 239 0.0 0.0 0.00 0.00 0.00 91 1012.8
20260510024005 64 178 0.0 0.0 0.00 0.00 0.00 90 1012.8
20260510023505 64 178 0.0 0.0 0.00 0.00 0.00 90 1012.8
20260510023005 64 178 0.0 0.0 0.00 0.00 0.00 90 1012.8
20260510022506 64 178 0.0 0.0 0.00 0.00 0.00 90 1012.8
20260510022005 64 178 0.0 0.0 0.00 0.00 0.00 90 1012.8
20260510021505 64 178 0.0 0.0 0.00 0.00 0.00 89 1012.8
20260510021005 65 178 0.0 0.0 0.00 0.00 0.00 89 1012.8
20260510020005 65 178 0.0 0.0 0.00 0.00 0.00 89 1012.4
20260510015506 65 157 0.0 0.0 0.00 0.00 0.00 89 1012.4
20260510015005 65 157 0.0 0.0 0.00 0.00 0.00 88 1012.4
20260510014505 65 157 0.0 0.0 0.00 0.00 0.00 88 1012.4
20260510014005 65 157 0.0 0.0 0.00 0.00 0.00 88 1012.4
20260510013006 65 226 0.0 0.0 0.00 0.00 0.00 88 1012.4
20260510012505 66 146 0.0 0.0 0.00 0.00 0.00 87 1012.4
20260510012005 66 146 0.0 0.0 0.00 0.00 0.00 87 1012.4
20260510011505 66 146 0.0 0.0 0.00 0.00 0.00 87 1012.4
20260510011005 66 146 0.0 0.0 0.00 0.00 0.00 86 1012.4
20260510010006 66 159 0.0 0.9 0.00 0.00 0.00 86 1012.1
20260510005505 66 147 0.9 2.6 0.00 0.00 0.00 86 1012.1
20260510004505 66 136 0.0 1.7 0.00 0.00 0.00 86 1010.9
20260510004006 66 188 0.0 0.9 0.00 0.00 0.00 86 1010.9
20260510003505 66 198 0.0 0.9 0.00 0.00 0.00 86 1010.9
20260510003006 67 198 0.0 0.9 0.00 0.00 0.00 85 1010.9
20260510002504 67 198 0.0 0.0 0.00 0.00 0.00 85 1010.9
20260510002005 67 240 0.0 0.9 0.00 0.00 0.00 85 1010.9
20260510001006 68 240 0.0 0.0 0.00 0.00 0.00 83 1010.9
20260510000505 68 240 0.0 0.0 0.00 0.00 0.00 83 1010.9
20260510000006 68 240 0.0 0.0 0.00 0.00 0.00 82 1010.9
20260509235505 68 240 0.0 0.0 0.00 0.00 0.00 81 1010.9
20260509234506 69 240 0.0 0.0 0.00 0.00 0.00 80 1010.9
20260509234007 69 240 0.0 0.0 0.00 0.00 0.00 80 1010.9
20260509233505 69 240 0.0 0.0 0.00 0.00 0.00 79 1010.9
20260509233006 69 240 0.0 0.9 0.00 0.00 0.00 79 1010.9
20260509232506 69 240 0.0 0.9 0.00 0.00 0.00 79 1010.9
20260509232005 69 240 0.0 0.9 0.00 0.00 0.00 79 1010.9
20260509231005 70 240 0.0 1.7 0.00 0.00 0.00 77 1010.9
20260509230506 70 235 0.0 1.7 0.00 0.00 0.00 77 1010.9
20260509225506 70 179 0.0 0.9 0.00 0.00 0.00 75 1010.9
20260509225005 70 263 0.9 1.7 0.00 0.00 0.00 75 1010.9
20260509224506 71 261 0.0 1.7 0.00 0.00 0.00 75 1010.9
20260509223506 71 107 0.0 0.9 0.00 0.00 0.00 75 1010.9
20260509223005 71 107 0.0 1.7 0.00 0.00 0.00 75 1010.9
20260509222505 71 94 0.0 1.7 0.00 0.00 0.00 74 1010.9
20260509222005 71 141 0.9 1.7 0.00 0.00 0.00 74 1010.9
20260509221505 71 164 0.0 1.7 0.00 0.00 0.00 73 1010.9
20260509221006 71 115 0.0 1.7 0.00 0.00 0.00 73 1010.9
20260509220006 72 227 0.0 1.7 0.00 0.00 0.00 72 1010.9
20260509215005 72 195 0.0 0.9 0.00 0.00 0.00 72 1010.9
20260509214505 72 98 0.0 0.9 0.00 0.00 0.00 71 1010.9
20260509214006 72 116 0.0 0.9 0.00 0.00 0.00 71 1010.9
20260509213505 72 190 0.0 1.7 0.00 0.00 0.00 70 1010.9
20260509213005 73 118 0.9 2.6 0.00 0.00 0.00 71 1011.0
20260509212506 73 122 0.0 2.6 0.00 0.00 0.00 70 1011.0
20260509212005 73 149 0.0 1.7 0.00 0.00 0.00 70 1011.0
20260509211505 73 218 0.9 2.6 0.00 0.00 0.00 70 1011.0
20260509211005 73 160 0.0 1.7 0.00 0.00 0.00 70 1011.0
20260509210504 73 251 0.0 1.7 0.00 0.00 0.00 70 1011.0
20260509210005 72 127 0.0 1.7 0.00 0.00 0.00 69 1011.0
20260509205504 72 240 0.9 1.7 0.00 0.00 0.00 70 1011.0
20260509205006 72 194 0.0 2.6 0.00 0.00 0.00 70 1011.0
20260509204505 73 233 0.0 1.7 0.00 0.00 0.00 70 1011.0
20260509204006 72 146 0.0 1.7 0.00 0.00 0.00 71 1011.0
20260509203505 73 280 0.9 2.6 0.00 0.00 0.00 67 1011.0
20260509202504 73 228 0.9 2.6 0.00 0.00 0.00 70 1011.0
20260509202005 73 253 0.9 2.6 0.00 0.00 0.00 69 1011.0
20260509201505 72 48 0.0 0.9 0.00 0.00 0.00 70 1011.0
20260509200505 73 158 0.0 1.7 0.00 0.00 0.00 69 1011.0
20260509200005 73 265 0.0 2.6 0.00 0.00 0.00 69 1011.0
20260509195506 73 154 0.0 0.9 0.00 0.00 0.00 68 1011.0
20260509195005 73 152 0.9 4.3 0.00 0.00 0.00 68 1011.6
20260509194506 73 255 0.9 4.3 0.00 0.00 0.00 69 1011.6
20260509194007 72 319 0.9 2.6 0.00 0.00 0.00 68 1011.6
20260509193505 72 177 0.0 1.7 0.00 0.00 0.00 71 1011.6
20260509193005 72 201 0.0 1.7 0.00 0.00 0.00 70 1011.6
20260509192505 72 313 0.0 1.7 0.00 0.00 0.00 71 1011.6
20260509192005 72 306 0.0 1.7 0.00 0.00 0.00 72 1011.6
20260509191504 72 107 0.9 1.7 0.00 0.00 0.00 72 1011.6
20260509191005 71 290 0.9 1.7 0.00 0.00 0.00 70 1011.6
20260509190006 72 273 0.9 2.6 0.00 0.00 0.00 69 1011.6
20260509185005 72 188 0.0 1.7 0.00 0.00 0.00 69 1011.6
20260509184505 72 135 1.7 2.6 0.00 0.00 0.00 70 1011.6
20260509184006 72 32 0.9 1.7 0.00 0.00 0.00 69 1011.6
20260509183505 72 260 0.0 1.7 0.00 0.00 0.00 69 1011.6
20260509183006 71 252 1.7 2.6 0.00 0.00 0.00 67 1011.6
20260509182505 71 267 0.9 2.6 0.00 0.00 0.00 69 1011.6
20260509182005 71 135 0.9 2.6 0.00 0.00 0.00 70 1011.6
20260509181505 71 213 0.9 2.6 0.00 0.00 0.00 71 1011.6
20260509181005 71 170 0.0 5.2 0.00 0.00 0.00 71 1011.6
20260509180005 70 295 0.9 4.3 0.00 0.00 0.00 72 1011.6
20260509175505 70 275 0.9 2.6 0.00 0.00 0.00 71 1011.6
20260509175005 70 159 0.9 2.6 0.00 0.00 0.00 72 1011.6
20260509174506 70 147 0.9 1.7 0.00 0.00 0.00 75 1011.6
20260509174005 69 274 0.0 2.6 0.00 0.00 0.00 74 1011.6
20260509173506 70 302 0.9 1.7 0.00 0.00 0.00 73 1011.6
20260509172505 69 276 1.7 4.3 0.00 0.00 0.00 74 1011.6
20260509172005 69 28 0.9 2.6 0.00 0.00 0.00 76 1011.6
20260509171505 68 216 1.7 6.1 0.00 0.00 0.00 77 1011.6
20260509171006 68 228 0.9 4.3 0.00 0.00 0.00 80 1011.6
20260509170505 67 236 0.0 2.6 0.00 0.00 0.00 80 1011.6
20260509165005 67 227 0.9 2.6 0.00 0.00 0.00 81 1012.2
20260509164005 66 306 1.7 2.6 0.00 0.00 0.00 82 1012.2
20260509163505 66 229 0.9 2.6 0.00 0.00 0.00 84 1012.2
20260509163006 65 227 0.9 2.6 0.00 0.00 0.00 86 1012.2
20260509162005 64 273 1.7 7.0 0.00 0.00 0.00 87 1012.2
20260509161504 64 305 1.7 2.6 0.00 0.00 0.00 88 1012.2
20260509160505 64 256 0.9 4.3 0.00 0.00 0.00 89 1012.2
20260509160005 64 241 2.6 5.2 0.00 0.00 0.00 90 1012.2
20260509155504 63 243 1.7 2.6 0.00 0.00 0.00 91 1012.2
20260509155005 63 297 1.7 6.1 0.00 0.00 0.00 91 1012.5
20260509154505 63 226 0.0 2.6 0.00 0.00 0.00 92 1012.5
20260509154006 63 247 0.9 2.6 0.00 0.00 0.00 92 1012.5
20260509153505 63 248 0.9 2.6 0.00 0.00 0.00 92 1012.5
20260509153005 63 272 0.9 2.6 0.00 0.00 0.00 92 1012.5
20260509152505 63 259 0.0 2.6 0.00 0.00 0.00 92 1012.5
20260509152004 63 263 2.6 4.3 0.00 0.00 0.00 92 1012.5
20260509151506 63 276 1.7 2.6 0.00 0.00 0.00 93 1012.5
20260509151006 62 283 0.9 2.6 0.00 0.00 0.00 93 1012.5
20260509150504 62 272 0.9 2.6 0.00 0.00 0.00 93 1012.5
20260509150004 62 255 1.7 2.6 0.00 0.00 0.00 93 1012.5
20260509145006 62 143 0.9 2.6 0.00 0.00 0.00 93 1012.5
20260509144506 62 187 0.9 2.6 0.00 0.00 0.00 93 1012.5
20260509144006 62 231 0.9 2.6 0.00 0.00 0.00 93 1012.5
20260509143505 62 202 0.0 1.7 0.00 0.00 0.00 93 1012.5
20260509143006 62 202 0.0 1.7 0.00 0.00 0.00 93 1012.5
20260509142505 62 202 0.0 0.9 0.00 0.00 0.00 92 1012.5
20260509141505 62 141 0.9 1.7 0.00 0.00 0.00 92 1012.5
20260509141005 62 257 0.0 2.6 0.00 0.00 0.00 92 1012.5
20260509140006 62 196 0.9 1.7 0.00 0.00 0.00 92 1012.5
20260509135506 62 140 0.9 1.7 0.00 0.00 0.00 92 1012.5
20260509135006 61 146 0.0 1.7 0.00 0.00 0.00 92 1012.5
20260509134505 61 165 1.7 4.3 0.00 0.00 0.00 92 1012.5
20260509134005 61 206 0.0 1.7 0.00 0.00 0.00 92 1012.5
20260509133505 61 192 0.0 0.9 0.00 0.00 0.00 92 1012.5
20260509133005 61 164 0.9 2.6 0.00 0.00 0.00 92 1012.5
20260509132505 61 204 0.0 2.6 0.00 0.00 0.00 92 1012.5
20260509132005 61 253 0.0 2.6 0.00 0.00 0.00 92 1012.5
20260509131505 61 256 1.7 4.3 0.00 0.00 0.00 92 1012.5
20260509131006 61 275 0.0 4.3 0.00 0.00 0.00 92 1012.5
20260509130505 61 232 0.9 2.6 0.00 0.00 0.00 92 1012.5
20260509130005 61 88 0.0 1.7 0.00 0.00 0.00 92 1012.5
20260509125504 61 208 0.9 1.7 0.00 0.00 0.00 93 1012.5
20260509125005 61 194 0.9 4.3 0.00 0.00 0.00 93 1012.5
20260509124505 61 150 0.0 0.9 0.00 0.00 0.00 93 1012.5
20260509124007 60 222 0.0 1.7 0.00 0.00 0.00 93 1012.5
20260509123505 60 287 0.0 2.6 0.00 0.00 0.00 93 1012.5
20260509122505 60 196 0.0 0.9 0.00 0.00 0.00 93 1012.5
20260509122006 60 196 0.0 0.9 0.00 0.00 0.00 93 1012.5
20260509121505 60 196 0.0 0.9 0.00 0.00 0.00 93 1012.5
20260509121005 60 279 0.0 0.9 0.00 0.00 0.00 93 1012.5
20260509120505 60 278 0.0 0.0 0.00 0.00 0.00 93 1012.5
20260509115505 59 278 0.9 1.7 0.00 0.00 0.00 93 1012.5